This is the latest recevied weather packets stored in our database for station/object KG2V. If no packets are shown the sender has not sent any weather packets the latest 10 day(s).
| Time | Temp. | Humidity | Pressure | Rain* | Wind** | Luminosity | Snow |
|---|---|---|---|---|---|---|---|
| 1777591459 | 8.33° C | 80% | 1008 hPa | 0 mm | - | 26 W/m² | - |
| 1777591155 | 8.33° C | 80% | 1008 hPa | 0 mm | - | 31 W/m² | - |
| 1777590849 | 8.33° C | 80% | 1007.9 hPa | 0 mm | - | 28 W/m² | - |
| 1777590547 | 8.33° C | 79% | 1007.9 hPa | 0 mm | - | 24 W/m² | - |
| 1777590242 | 8.33° C | 79% | 1008 hPa | 0 mm | - | 30 W/m² | - |
| 1777589940 | 8.33° C | 77% | 1007.9 hPa | 0 mm | - | 28 W/m² | - |
| 1777589636 | 8.33° C | 70% | 1008 hPa | 0 mm | - | 15 W/m² | - |
| 1777589333 | 8.33° C | 68% | 1007.9 hPa | 0 mm | - | 17 W/m² | - |
| 1777589031 | 8.33° C | 75% | 1007.7 hPa | 0 mm | - | 19 W/m² | - |
| 1777588727 | 8.33° C | 78% | 1007.7 hPa | 0 mm | - | 15 W/m² | - |
| 1777588422 | 8.89° C | 78% | 1007.7 hPa | 0 mm | - | 14 W/m² | - |
| 1777588118 | 8.89° C | 75% | 1007.7 hPa | 0 mm | - | 11 W/m² | - |
| 1777587814 | 8.89° C | 73% | 1007.6 hPa | 0 mm | - | 10 W/m² | - |
| 1777587513 | 8.89° C | 69% | 1007.6 hPa | 0 mm | - | 16 W/m² | - |
| 1777587210 | 8.89° C | 68% | 1007.5 hPa | 0 mm | - | 22 W/m² | - |
| 1777586905 | 8.89° C | 68% | 1007.5 hPa | 0 mm | - | 32 W/m² | - |
| 1777586602 | 8.89° C | 67% | 1007.4 hPa | 0 mm | - | 40 W/m² | - |
| 1777586297 | 8.89° C | 67% | 1007.3 hPa | 0 mm | - | 46 W/m² | - |
| 1777585995 | 8.89° C | 67% | 1007.4 hPa | 0 mm | - | 32 W/m² | - |
| 1777585689 | 8.89° C | 67% | 1007.5 hPa | 0 mm | - | 35 W/m² | - |
| 1777585378 | 8.89° C | 66% | 1007.3 hPa | 0 mm | - | 32 W/m² | - |
| 1777585068 | 8.89° C | 65% | 1007.1 hPa | 0 mm | - | 35 W/m² | - |
| 1777584764 | 9.44° C | 65% | 1007.3 hPa | 0 mm | - | 32 W/m² | - |
| 1777584462 | 9.44° C | 64% | 1007 hPa | 0 mm | - | 67 W/m² | - |
| 1777584158 | 9.44° C | 64% | 1007 hPa | 0 mm | - | 97 W/m² | - |
* Rain latest hour (hover to see other rain measurements)
** Current wind speed in m/s (hover to see current wind gust speed)